Home > Weather > Santa Cruz > Past weeks

Flag for U.S.A. Weather for the Past 2 Weeks in Santa Cruz, California, U.S.A.

Now
68 °F

Sunny.


Feels Like: 68 °F
Forecast: 50 / 68 °F
Wind: 3 mph from South

Location: Watsonville Municipal Airport

Current Time: Feb 12, 2016 at 1:40:56 PM

Latest Report: Feb 12, 2016 at 12:53 PM


Visibility: 10 mi

Pressure: 30.17 "Hg

Humidity: 55%

Dew point: 51 °F

Location of Santa CruzLocation

Historic Weather in Santa Cruz — Graph

°F

Santa Cruz Temperature Yesterday

Maximum temperature yesterday: 71 °F (at 11:53 AM)
Minimum temperature yesterday: 48 °F (at 6:53 AM)
Average temperature yesterday: 57 °F

High & Low Weather Summary for the Past Weeks

 TemperatureHumidityPressure
High81 °F (Feb 9, 1:53 PM)100% (Jan 29, 11:53 PM)30.44 "Hg (Jan 29, 11:53 PM)
Low37 °F (Feb 2, 1:53 AM)27% (Feb 9, 1:53 PM)29.77 "Hg (Jan 31, 1:53 PM)
Average54 °F72%30.20 "Hg
* Reported Jan 28 11:53 AM — Feb 12 11:53 AM, Santa Cruz, Weather by CustomWeather, © 2016

Note: Actual official high and low records may vary slightly from our data, if they occured in-between our weather recording intervals... More about our weather records

Advertising

Santa Cruz Weather History for the Previous 24 Hours

 ConditionsComfort  
Time TempWeatherWind HumidityBarometerVisibility
11:53 AM
Fri, Feb 12
66 °FSunny.5 mph61%30.19 "Hg10 mi
10:53 AM61 °FSunny.No wind72%30.22 "Hg10 mi
9:53 AM56 °FSunny.No wind81%30.22 "Hg10 mi
8:53 AM52 °FSunny.No wind89%30.22 "Hg10 mi
7:53 AM49 °FSunny.No wind93%30.20 "Hg9 mi
6:53 AM47 °FClear.No wind93%30.20 "Hg8 mi
5:53 AM47 °FClear.No wind97%30.18 "Hg10 mi
4:53 AM46 °FClear.3 mph96%30.18 "Hg10 mi
3:53 AM47 °FPassing clouds.No wind97%30.18 "Hg10 mi
2:53 AM49 °FFog.No wind97%30.19 "Hg0 mi
1:53 AM50 °FFog.No wind100%30.20 "Hg0 mi
12:53 AM52 °FFog.No wind97%30.19 "Hg0 mi
11:53 PM
Thu, Feb 11
52 °FFog.No wind97%30.19 "Hg0 mi
10:53 PM53 °FFog.No wind100%30.19 "Hg0 mi
9:53 PM53 °FFog.No wind100%30.18 "Hg0 mi
8:53 PM53 °FFog.No wind100%30.19 "Hg1 mi
8:00 PM54 °FFog.No wind97%30.16 "Hg1 mi
7:01 PM54 °FFog.5 mph100%30.16 "Hg2 mi
5:53 PM58 °FClear.5 mph84%30.14 "Hg10 mi
4:53 PM63 °FSunny.7 mph73%30.13 "Hg10 mi
3:53 PM67 °FSunny.3 mph49%30.11 "Hg10 mi
2:53 PM70 °FSunny.6 mph47%30.11 "Hg10 mi
Weather by CustomWeather, © 2016

See weather overviewHow to use our weather pages